Key statistics
Satellite COSMOS 2536 at a glance.
Uptime
1808
Days in orbit
Revolutions
≈ 15.2
Per day
Orbit
SSO
Sun Synchronous Orbit
Inclination
97.7
Latest
Satellite identification and parameters
Extended collection of information and parameters for COSMOS 2536.
Object identification
Identified? True
Debris? False
Object name: COSMOS 2536
International designator: 2019-039B
Object number (NORAD): 44422
Object ID (CCSDS): 44422
Country: COMMONWEALTH OF INDEPENDENT STATES (CIS)
Current information (Y/N): Y
RCS size: LARGE
Orbital parameters
Decay date: June 21, 2024
Period: 94.668 minutes
Inclination: 97.6861 deg
SMA: 6880.626 km
Apoapsis: 504.957 km
Periapsis: 500.025 km
RAAN: 95.1922 deg
Eccentricy: 0.0003584
Argument of periapsis: 165.2942 deg
Mean anomaly: 194.8397 deg
Mean motion: 15.21110847 rev/day
Mean motion (dot): 0.00091501 rev/day2
B* drag term: 0.0040682 1/REarth
Two-line elements (TLE)
Creation date: Feb. 12, 2024, 3:07 a.m.
Reference frame: TEME
Reference center: EARTH
Epoch: Feb. 11, 2024, 10:24 p.m. UTC
TLE line 0: 0 COSMOS 2536
TLE line 1: 1 44422U 19039B 24042.93375866 .00091501 00000-0 40682-2 0 9995
TLE line 2: 2 44422 97.6861 95.1922 0003584 165.2942 194.8397 15.21110847249806
Live tracking on map
Satellite COSMOS 2536 has decayed and is no longer in orbit. No tracking available.
In-orbit conjunctions
Satellite COSMOS 2536 has decayed and is no longer in orbit. No conjunctions available.
Associated space launch
Four satellites in the interests of the Ministry of Defense of Russia.
COSMOS 2536 was lifted into orbit during the mission ‘Soyuz 2.1v/Volga | Kosmos 2535, Kosmos 2536, Kosmos 2537, Kosmos 2538’, on board a Soyuz 2.1v space rocket.
The launch took place on July 10, 2019, 5:14 p.m. from 43/4 (43R).
For more information about the launch, click the button.
Soyuz 2.1v/Volga | Kosmos 2535, Kosmos 2536, Kosmos 2537, Kosmos 2538
Agency: N/A
Status: Launch Successful
Launch date: July 10, 2019, 5:14 p.m. UTC
Rocket: Soyuz 2.1v
Launch pad: 43/4 (43R)
Location: Plesetsk Cosmodrome, Russian Federation
...
Latest news about this satellite
Newsletter sign-up
Weekly statistics, charts and insights to help you stay on top of the space industry.
